{"data":{"norad_id":68175,"intl_designator":"2026-050J","name":"STARLINK-36886","alt_names":[],"object_type":"PAYLOAD","status":"ACTIVE","operator":null,"country":"US","launch_date":"2026-03-14","launch_site_code":"AFETR","launch_vehicle":null,"mission":null,"orbit_class":"UNKNOWN","rcs_meters":null,"size_class":null,"mass_kg":null,"dimensions":null,"purposes":["comms"],"wikipedia_slug":null,"has_3d_model":false,"image_url":null,"decayed_at":null,"tle_current":{"epoch":"2026-05-24T18:38:40.932960Z","epoch_age_seconds":91644,"freshness":"FRESH","line1":"1 68175U 26050J   26144.77686265  .00025860  00000+0  77386-3 0  9998","line2":"2 68175  53.1584 272.5350 0000795 105.7376 254.3715 15.34400691 12349","mean_motion":15.34400691,"eccentricity":7.95e-5,"inclination_deg":53.1584,"raan_deg":272.535,"arg_perigee_deg":105.7376,"mean_anomaly_deg":254.3715,"bstar":0.00077386,"rev_number":1234,"period_min":93.847715818058,"perigee_km":462.15733977443,"apogee_km":463.24503304607,"semimajor_km":6840.8381864103,"source":"CELESTRAK","updated_at":"2026-05-25T13:38:21.853912Z"}}}